Theta_e
341 340 341 336 337 337 336 334 334 334 333 332 331 331 330 329 328 324 321 319 315 315 322 324 330 336 334 329 328 325 318 326 336 336 333 329 326 327 327 325 318 315 315
340 340 341 341 337 336 336 335 335 335 334 334 334 333 333 332 331 329 323 324 326 326 322 323 324 327 327 327 331 332 327 320 320 334 334 331 331 331 329 327 320 315 314
339 339 340 341 340 339 337 337 336 336 336 336 337 337 337 336 334 334 331 326 325 328 332 335 324 321 322 316 315 320 322 321 318 316 330 333 332 331 330 329 330 316 315
340 340 340 341 340 339 340 339 339 339 339 339 339 338 338 338 338 337 336 334 329 326 328 332 332 332 333 331 324 315 315 317 317 316 316 322 327 328 328 330 333 325 316
340 341 340 340 341 341 340 340 340 339 339 339 339 339 339 338 337 337 337 337 337 334 330 329 332 334 332 331 331 328 319 315 317 317 316 317 322 325 329 331 329 333 331
338 339 339 340 340 340 340 339 338 335 336 336 337 338 338 339 339 339 339 338 338 338 337 335 332 331 330 332 331 332 332 325 315 316 317 319 322 325 326 333 329 329 331
337 336 337 338 339 339 338 337 334 330 329 329 327 331 334 333 333 336 336 337 337 337 337 337 337 336 334 333 331 330 330 332 331 318 316 319 324 326 324 327 333 331 330
336 336 337 338 337 334 330 325 322 322 321 321 322 323 325 327 328 329 331 332 331 335 337 337 336 336 336 335 335 334 332 330 330 331 325 316 319 324 324 327 331 334 332
335 334 333 330 325 321 317 313 311 310 310 310 310 310 310 311 313 315 317 319 322 325 330 335 336 336 336 336 336 335 334 333 332 329 329 331 318 319 324 327 327 334 334
330 328 321 315 311 311 310 310 309 308 308 308 308 308 308 308 308 308 308 308 309 312 316 320 326 332 335 336 336 335 335 335 335 335 333 331 329 329 318 323 328 329 328
323 314 311 311 310 310 309 308 308 308 309 309 309 309 310 310 310 310 310 310 310 310 309 309 312 317 321 327 332 334 335 333 333 333 334 335 335 331 329 328 320 325 329
313 311 311 310 309 308 308 308 309 309 309 309 310 310 310 310 310 310 310 310 310 310 311 311 310 310 313 316 320 324 331 333 332 333 332 332 333 335 335 332 331 329 321
312 311 310 309 308 308 308 309 309 309 309 309 309 309 309 309 309 310 310 311 311 311 311 311 311 311 310 311 313 316 321 326 330 331 330 331 331 334 334 334 333 332 333
312 310 309 308 308 308 308 309 309 309 309 308 308 308 309 309 309 310 310 310 311 311 311 312 312 311 311 311 312 315 318 320 323 325 327 329 332 332 332 334 333 334 334
311 310 309 308 308 308 308 308 308 308 308 308 308 308 307 307 308 309 309 310 310 310 310 311 311 312 312 312 311 312 315 317 318 319 321 323 327 329 331 331 333 333 335
311 309 309 308 308 308 308 308 308 308 307 307 306 306 306 306 307 307 308 308 309 309 309 310 310 312 313 312 312 312 311 312 315 316 317 318 320 323 324 326 327 327 330
310 309 309 308 308 308 308 308 308 307 306 306 306 306 306 306 306 307 307 308 308 308 308 309 309 310 310 312 314 313 313 312 312 313 315 316 318 318 318 318 318 319 321
310 310 309 308 308 308 308 308 307 306 306 306 306 306 306 305 305 306 306 307 307 308 308 308 309 309 309 310 311 314 315 315 314 314 314 315 315 315 315 315 315 315 317
310 310 309 308 308 307 308 308 306 306 306 306 306 305 305 304 303 304 305 306 307 307 308 308 308 309 309 309 309 310 312 313 315 315 315 316 316 316 316 316 316 316 316
310 310 310 309 308 308 308 307 306 306 306 306 306 305 304 303 301 300 300 300 300 300 300 301 302 306 308 308 309 309 311 314 316 317 317 317 317 317 317 318 318 319 319
311 311 310 310 310 308 308 306 306 306 306 307 306 306 304 302 301 300 299 299 299 299 300 300 301 303 304 305 306 309 313 315 316 317 315 315 315 316 316 316 315 316 317
311 311 311 310 310 309 308 306 306 306 306 307 306 306 305 304 302 301 301 300 299 299 299 299 299 300 302 304 308 309 309 313 315 312 314 314 313 311 311 312 312 312 312
311 311 311 311 310 309 307 306 306 306 306 306 307 306 305 304 304 302 301 300 299 299 298 298 298 299 299 299 305 306 308 308 308 309 309 309 309 308 308 308 309 310 310
311 311 311 310 309 309 308 307 306 306 307 307 307 306 306 305 304 303 302 301 300 299 298 297 296 297 300 300 300 302 305 305 306 307 307 307 307 307 307 307 307 308 308
310 311 311 310 309 309 308 308 307 307 307 307 307 307 306 305 304 303 302 301 299 299 298 297 296 295 296 298 299 299 300 303 305 306 306 306 305 304 304 303 303 304 305
310 311 310 309 309 309 308 308 307 308 308 307 307 307 306 305 304 303 302 302 301 300 299 298 297 296 295 295 296 297 301 301 302 303 303 303 302 301 300 302 302 302 300
Wind_Speed
13 9 7 6 6 5 3 2 2 2 2 4 5 6 7 8 9 10 8 8 6 4 3 3 3 2 3 3 4 5 3 2 1 1 1 1 2 3 5 6 8 7 5
12 8 7 6 5 5 3 3 2 1 2 3 5 6 7 7 8 9 8 7 6 5 4 4 3 3 4 4 3 4 5 4 4 4 4 2 2 2 3 4 6 7 6
11 9 7 6 5 4 3 2 1 1 2 3 4 6 6 7 8 8 8 7 5 4 4 5 3 4 5 6 5 6 6 6 6 7 8 7 6 5 5 4 4 5 5
11 10 8 6 5 4 3 2 0 1 3 4 4 5 6 6 7 8 8 7 6 5 5 5 5 6 7 7 7 7 6 7 7 8 9 10 9 8 7 4 3 5 5
12 10 9 7 6 5 3 2 1 1 2 3 4 4 5 6 7 7 8 8 8 7 7 7 7 7 8 8 9 8 7 7 8 8 9 10 9 7 7 6 4 4 6
11 10 8 7 6 4 3 3 4 6 7 7 8 7 7 7 7 8 8 8 9 9 9 9 10 10 10 11 10 10 9 9 9 9 9 10 10 8 9 11 7 5 7
11 10 8 6 5 3 3 5 6 8 8 9 10 10 11 12 12 13 13 12 12 12 12 12 12 13 12 12 12 12 11 11 11 10 11 12 12 11 11 11 10 7 8
11 10 8 6 4 3 4 6 7 8 9 10 11 11 12 13 14 14 14 15 15 15 15 15 15 15 16 15 15 14 13 13 13 12 12 12 14 15 14 13 14 14 10
12 10 8 5 4 4 5 7 8 9 11 12 12 13 14 15 15 16 17 17 17 17 17 17 18 18 17 17 17 16 15 15 15 15 14 14 14 16 17 17 16 15 16
11 8 6 4 3 4 6 8 9 10 11 12 13 14 15 15 16 17 18 19 20 20 20 20 21 21 21 20 19 18 17 16 16 16 16 15 15 16 18 20 20 20 19
10 7 4 3 4 5 7 8 9 10 11 12 13 15 16 16 17 18 20 21 21 22 22 22 23 23 24 24 23 21 21 21 19 20 20 18 17 18 19 20 22 23 24
8 5 3 3 5 6 7 8 9 10 11 12 13 14 15 16 17 18 19 21 21 22 23 24 24 25 24 24 24 23 23 23 23 22 23 22 20 21 21 22 22 22 23
7 5 3 3 4 5 7 8 9 10 11 12 13 13 14 15 16 16 17 17 18 19 20 21 22 24 25 25 24 24 23 23 23 24 24 23 22 21 20 20 20 23 21
6 4 3 3 4 5 6 7 8 9 11 12 13 13 13 14 14 15 15 16 17 17 17 17 18 19 21 23 24 24 23 22 22 23 22 21 22 22 24 23 21 21 23
6 4 4 4 5 7 8 9 11 11 12 12 13 13 14 15 15 15 15 15 16 16 17 17 17 17 17 18 20 24 24 22 21 20 20 20 21 20 20 21 22 24 21
6 5 5 5 7 8 9 11 11 12 12 13 13 14 16 17 17 17 18 18 18 18 18 19 19 19 18 18 16 17 19 22 22 20 20 20 20 20 22 23 25 24 24
6 5 5 7 8 9 10 11 12 12 12 13 13 14 16 16 16 17 18 19 19 19 18 17 16 16 16 16 15 15 14 14 17 19 19 18 18 19 20 20 21 23 23
6 5 7 8 8 9 10 11 11 11 11 11 13 14 15 16 18 19 19 20 20 20 20 20 19 17 16 14 14 12 12 10 11 13 17 20 22 24 25 26 25 22 21
7 8 9 9 8 9 10 10 10 10 10 11 13 14 16 17 18 18 18 18 18 19 19 19 18 16 17 15 13 11 10 10 8 8 10 12 13 14 14 16 15 18 19
9 9 8 7 8 10 10 10 9 9 10 11 13 15 16 17 18 18 18 18 18 18 18 18 16 13 14 16 13 10 6 5 5 2 1 3 4 5 5 6 6 7 8
12 9 7 7 10 11 10 9 9 9 10 11 13 14 15 16 17 18 18 18 17 18 19 20 18 15 12 13 11 5 2 1 4 4 0 4 7 8 8 9 11 12 11
14 11 7 8 11 11 10 9 9 10 11 11 12 14 15 15 17 18 18 19 18 17 17 18 19 18 15 14 13 9 5 3 3 6 9 11 12 13 14 13 13 14 14
17 12 9 10 12 9 9 10 11 12 12 13 14 14 14 14 15 16 17 17 17 17 17 17 17 18 16 14 8 7 4 4 13 5 11 12 14 16 16 15 13 14 15
17 13 9 10 9 9 10 12 14 15 15 15 15 14 14 14 14 15 16 16 16 16 16 16 15 15 14 14 8 7 3 8 5 9 5 16 12 16 13 12 11 10 11
16 12 10 7 7 9 11 13 14 16 16 17 17 16 16 15 14 15 15 15 15 16 15 16 15 14 14 13 12 11 6 5 8 13 20 13 22 14 11 13 14 15 15
16 15 10 6 7 10 12 13 15 16 17 19 18 18 17 16 15 15 15 15 16 16 15 15 15 15 15 13 13 12 8 6 8 11 18 16 14 13 19 11 14 15 16
Wind_Direction
148 140 140 139 145 144 141 139 137 90 56 41 38 36 34 33 32 34 37 43 54 65 59 56 55 35 2 10 23 22 14 340 348 131 29 331 41 10 12 14 14 12 14
152 150 141 145 138 140 142 130 118 86 49 34 24 22 22 22 25 27 29 31 37 41 37 18 5 358 348 337 321 331 331 318 277 255 248 261 299 328 350 4 11 11 8
157 153 142 144 137 140 136 126 106 45 19 14 13 5 5 7 9 11 15 14 9 3 1 7 347 350 354 349 331 311 306 298 285 265 260 252 258 277 303 323 353 2 1
153 158 153 149 148 143 140 140 94 359 352 346 351 348 347 350 350 349 349 349 347 335 323 323 315 315 319 326 335 335 315 303 295 280 266 258 259 270 275 279 314 352 351
147 152 162 164 163 160 170 180 209 296 302 304 311 317 327 327 328 327 326 325 322 320 314 308 307 305 305 307 309 317 320 304 293 287 279 268 264 277 260 243 288 306 333
168 172 168 181 187 196 223 259 285 290 284 289 289 290 291 295 295 299 301 299 297 298 301 299 301 301 299 298 301 298 302 307 300 291 278 269 270 272 270 258 270 285 301
187 184 192 193 197 217 257 281 294 296 297 297 298 296 293 293 291 291 292 291 291 290 287 288 290 290 290 292 295 296 294 292 295 294 285 274 268 270 274 277 258 274 286
182 174 177 185 198 230 263 280 290 293 297 298 299 297 294 293 293 292 290 288 287 284 282 282 282 283 286 286 286 289 288 288 288 289 288 281 274 267 268 277 266 265 274
172 170 175 192 218 247 269 284 291 296 298 299 298 299 298 296 295 293 291 289 287 286 283 279 278 279 278 281 281 279 280 281 280 283 284 283 280 272 266 269 274 269 273
172 176 184 203 236 269 285 292 297 301 303 303 302 301 300 298 297 295 293 292 290 287 283 279 276 276 276 278 278 275 272 272 274 278 280 280 277 275 271 267 268 270 274
179 178 187 235 276 295 304 308 312 315 314 312 311 311 309 306 304 302 299 296 293 288 285 281 278 277 276 276 277 276 272 271 273 275 278 277 277 275 273 271 267 266 270
177 182 214 265 293 307 316 319 322 322 322 320 320 318 316 314 310 306 303 299 295 292 289 284 281 278 277 276 276 276 275 273 272 273 275 277 275 275 275 274 269 265 266
184 201 232 273 303 318 323 322 326 327 327 327 325 324 322 322 320 317 314 311 308 303 298 292 286 281 277 276 276 277 275 273 274 276 277 275 271 264 274 272 271 266 269
195 219 253 291 312 322 321 328 330 331 330 331 329 331 330 327 326 324 322 321 320 317 313 308 302 295 285 277 274 274 277 279 277 276 276 276 275 271 270 272 276 274 269
210 234 271 300 317 324 329 334 338 338 337 333 333 334 331 329 330 331 330 330 328 326 323 320 316 311 305 297 287 276 273 275 279 281 282 281 280 280 279 279 278 276 277
224 253 292 315 320 327 333 335 335 335 337 337 334 332 333 334 334 332 331 329 329 327 327 326 327 327 325 321 314 301 285 275 274 279 283 284 283 284 281 279 282 285 282
243 276 303 309 315 322 327 331 334 335 334 332 333 336 337 337 335 334 332 331 332 330 327 323 321 321 322 323 323 319 312 297 281 275 275 275 278 279 282 283 283 287 287
258 279 289 296 309 319 325 328 327 326 330 335 338 341 343 343 342 340 338 337 338 334 331 329 328 329 327 328 325 325 326 314 299 283 277 276 276 278 280 282 283 280 280
259 273 287 298 308 317 319 318 318 322 330 337 342 346 348 348 347 345 343 342 341 336 332 330 329 330 328 333 331 330 320 316 317 303 287 284 285 284 285 286 284 288 287
256 268 282 302 313 313 311 311 314 319 330 337 342 345 347 347 346 345 344 344 343 340 336 334 334 340 332 332 338 352 353 353 8 8 283 277 275 273 275 281 284 286 287
250 259 277 301 309 307 303 309 314 321 328 333 337 340 342 343 342 342 344 345 345 346 347 345 344 350 350 350 352 60 85 52 110 126 106 294 296 300 293 295 297 294 292
249 250 268 289 304 304 305 307 308 312 318 322 327 331 336 339 339 339 341 344 345 346 347 348 350 353 1 8 9 10 1 221 238 293 288 287 295 311 301 296 295 294 292
244 247 263 290 305 292 292 298 301 306 312 318 322 325 326 330 333 336 339 341 343 344 347 349 349 352 356 357 19 7 346 335 317 281 296 291 309 317 311 304 298 293 291
240 236 258 287 286 289 300 304 306 306 307 311 312 314 315 320 327 332 333 336 339 341 343 344 346 345 346 348 2 318 278 289 304 303 273 307 310 316 313 311 306 298 298
229 226 244 270 292 303 306 303 301 301 302 303 304 305 307 312 318 321 324 328 332 334 337 340 340 339 337 336 334 337 334 302 294 293 305 313 314 325 319 316 308 312 311
202 211 226 242 298 301 310 314 309 303 299 297 298 296 298 303 306 309 313 318 322 326 331 334 336 335 333 330 326 318 301 301 287 287 297 305 324 332 321 319 308 317 324